This is the latest recevied weather packets stored in our database for station/object MB7UIK. If no packets are shown the sender has not sent any weather packets the latest 1 day(s).
| Time | Temp. | Humidity | Pressure | Rain* | Wind** | Luminosity | Snow |
|---|---|---|---|---|---|---|---|
| 1777962884 | 12.22° C | 100% | 1012.3 hPa | 0 mm | 1.34 m/s, 355° | - | - |
| 1777962825 | 12.22° C | 100% | 1012.2 hPa | 0 mm | 0.89 m/s, 332° | - | - |
| 1777962765 | 12.22° C | 100% | 1012.2 hPa | 0 mm | 1.34 m/s, 351° | - | - |
| 1777962731 | 12.22° C | 100% | 1012.2 hPa | 0 mm | 1.34 m/s, 351° | - | - |
| 1777962705 | 12.22° C | 100% | 1012.2 hPa | 0 mm | 1.79 m/s, 344° | - | - |
| 1777962645 | 12.22° C | 100% | 1012.2 hPa | 0 mm | 1.34 m/s, 339° | - | - |
| 1777962585 | 12.22° C | 100% | 1012.2 hPa | 0 mm | 1.34 m/s, 20° | - | - |
| 1777962525 | 12.22° C | 100% | 1012.2 hPa | 0 mm | 0.89 m/s, 338° | - | - |
| 1777962464 | 12.22° C | 100% | 1012.1 hPa | 0 mm | 0.89 m/s, 10° | - | - |
| 1777962433 | 12.22° C | 100% | 1012.1 hPa | 0 mm | 0.89 m/s, 10° | - | - |
| 1777962404 | 12.22° C | 100% | 1012.2 hPa | 0 mm | 0.45 m/s, 329° | - | - |
| 1777962344 | 12.22° C | 100% | 1012.2 hPa | 0 mm | 1.79 m/s, 341° | - | - |
| 1777962284 | 12.22° C | 100% | 1012.2 hPa | 0 mm | 1.34 m/s, 360° | - | - |
| 1777962224 | 12.22° C | 100% | 1012.2 hPa | 0 mm | 1.34 m/s, 26° | - | - |
| 1777962165 | 12.22° C | 100% | 1012.2 hPa | 0 mm | 1.34 m/s, 35° | - | - |
| 1777962131 | 12.22° C | 100% | 1012.2 hPa | 0 mm | 1.34 m/s, 35° | - | - |
| 1777962105 | 11.67° C | 100% | 1012.1 hPa | 0 mm | 1.34 m/s, 37° | - | - |
| 1777962045 | 11.67° C | 100% | 1012.1 hPa | 0 mm | 0.89 m/s, 355° | - | - |
| 1777961985 | 11.67° C | 100% | 1012.1 hPa | 0 mm | 1.34 m/s, 355° | - | - |
| 1777961924 | 11.67° C | 100% | 1012.1 hPa | 0 mm | 0.45 m/s, 349° | - | - |
| 1777961864 | 11.67° C | 100% | 1012.1 hPa | 0 mm | 0.89 m/s, 5° | - | - |
| 1777961832 | 11.67° C | 100% | 1012.1 hPa | 0 mm | 0.89 m/s, 5° | - | - |
| 1777961806 | 11.67° C | 100% | 1012.1 hPa | 0 mm | 2.68 m/s, 5° | - | - |
| 1777961745 | 11.67° C | 100% | 1012.1 hPa | 0 mm | 1.34 m/s, 13° | - | - |
| 1777961685 | 11.67° C | 100% | 1012.2 hPa | 0 mm | 1.79 m/s, 341° | - | - |
* Rain latest hour (hover to see other rain measurements)
** Current wind speed in m/s (hover to see current wind gust speed)